Regional Weather Roundup
Issued by NWS Cleveland, OH

Home | Current Version | Previous Version | Graphics & Text | Print | Product List | Glossary On
Versions: 1 2 3 4 5 6 7 8 9 10 11 12 13 14 15 16 17 18 19 20 21 22 23 24 25 26 27 28 29 30 31 32 33 34 35 36 37 38 39 40 41 42 43 44 45 46 47 48 49 50
000
ASUS41 KCLE 302102
RWRCLE
OHIO REGIONAL WEATHER ROUNDUP
NATIONAL WEATHER SERVICE CLEVELAND, OH
500 PM EDT TUE SEP 30 2014

NOTE: "FAIR" INDICATES FEW OR NO CLOUDS BELOW 12,000 FEET WITH NO
SIGNIFICANT WEATHER AND/OR OBSTRUCTIONS TO VISIBILITY.

OHZ001>008-015>018-024>027-034-035-043-044-302200-
   NORTHWEST OHIO

CITY           SKY/WX    TMP DP  RH WIND       PRES   REMARKS
DEFIANCE       CLOUDY    58  47  66 N9        29.98S
FINDLAY        CLOUDY    59  50  72 N7        29.95F
TOLEDO EXPRESS CLOUDY    57  48  72 N3        29.97S
TOLEDO EXEC    CLOUDY    59  48  67 NW6       29.98S
LIMA           CLOUDY    58  48  69 NW5       29.96F
$$

OHZ009>014-019>023-028>033-038-089-302200-
   NORTHEAST OHIO

CITY           SKY/WX    TMP DP  RH WIND       PRES   REMARKS
CLE-HOPKINS    CLOUDY    60  53  77 NW9       29.96S
CLE-LAKEFRONT  CLOUDY    61  54  77 NW8       29.93S
CUY CO. ARPT   CLOUDY    61  59  94 N8        29.94S
LORAIN-ELYRIA  CLOUDY    62  53  72 N6        29.95S
ASHTABULA      CLOUDY    61  56  83 NW5       29.93R
AKRON-CANTON   PTSUNNY   63  56  78 NW12      29.92S
WOOSTER        PTSUNNY   63  54  72 N13       29.93S
MANSFIELD      CLOUDY    61  53  75 N10       29.94R
YOUNGSTOWN     PTSUNNY   63  57  81 NW14      29.90S
$$

OHZ042-051>053-060>062-070>072-077>081-302200-
  SOUTHWEST OHIO

CITY           SKY/WX    TMP DP  RH WIND       PRES   REMARKS
CINC-COVINGTON PTSUNNY   76  57  51 N13       29.90F
CINC-LUNKEN    SUNNY     75  60  59 N12       29.90S
HAMILTON       MOSUNNY   70  59  68 N10       29.93S
DAYTON         PTSUNNY   63  53  70 N7        29.95S
WRIGHT-PAT AFB CLOUDY    61  55  79 N5        29.94S
DAYTON GENERAL CLOUDY    63  57  81 N12       29.93S
WILMINGTON     PTSUNNY   66  57  72 N12       29.92S
$$

OHZ036-037-039>041-045>050-054>059-063>069-073>076-082>088-302200-
  CENTRAL AND SOUTHEAST OHIO

CITY           SKY/WX    TMP DP  RH WIND       PRES   REMARKS
COLUMBUS       CLOUDY    59  55  87 NW10      29.93S
OSU AIRPORT    CLOUDY    59  54  83 NW12      29.94S
BOLTON FIELD   CLOUDY    59  55  88 N13       29.94S
RICKENBACK AFB CLOUDY    61  56  86 N12       29.92S
NEWARK         CLOUDY    62  57  83 NW8       29.91S
MARION         PTSUNNY   60  51  72 NW7       29.95S
LANCASTER      CLOUDY    64  58  80 N10       29.91S
ZANESVILLE     CLOUDY    65  59  81 NW10      29.90S
NEW PHILLY     PTSUNNY   71  57  61 NW9       29.90S
$$



USA.gov is the U.S. government's official web portal to all federal, state and local government web resources and services.